| time (UTC) | temp F | wind direction | speed knots | gust knots | rain 1hr in | rain 24hr in | rain mn in | humidity % | barometer mb |
| 20260503032655 | 43 | 135 | 0.0 | 0.0 | 0.00 | 0.00 | 0.00 | 88 | 1008.0 |
| 20260503032155 | 43 | 135 | 0.0 | 0.0 | 0.00 | 0.00 | 0.00 | 88 | 1008.0 |
| 20260503031656 | 43 | 135 | 0.0 | 0.0 | 0.00 | 0.00 | 0.00 | 88 | 1008.0 |
| 20260503031154 | 43 | 135 | 0.0 | 0.0 | 0.00 | 0.00 | 0.00 | 87 | 1008.0 |
| 20260503030656 | 43 | 135 | 0.0 | 0.0 | 0.00 | 0.00 | 0.00 | 88 | 1008.0 |
| 20260503030154 | 43 | 135 | 0.0 | 0.0 | 0.00 | 0.00 | 0.00 | 87 | 1008.0 |
| 20260503025654 | 43 | 135 | 0.0 | 0.0 | 0.00 | 0.00 | 0.00 | 88 | 1008.0 |
| 20260503025155 | 43 | 135 | 0.0 | 0.0 | 0.00 | 0.00 | 0.00 | 87 | 1008.0 |
| 20260503024654 | 44 | 135 | 0.0 | 0.0 | 0.00 | 0.00 | 0.00 | 87 | 1008.0 |
| 20260503024154 | 44 | 135 | 0.0 | 0.9 | 0.00 | 0.00 | 0.00 | 87 | 1008.0 |
| 20260503023654 | 44 | 135 | 0.0 | 0.9 | 0.00 | 0.00 | 0.00 | 87 | 1008.0 |
| 20260503023154 | 44 | 135 | 0.0 | 0.0 | 0.00 | 0.00 | 0.00 | 87 | 1008.0 |
| 20260503022654 | 44 | 135 | 0.0 | 0.0 | 0.00 | 0.00 | 0.00 | 87 | 1008.0 |
| 20260503022154 | 44 | 135 | 0.0 | 0.0 | 0.00 | 0.00 | 0.00 | 87 | 1008.0 |
| 20260503021655 | 45 | 113 | 0.0 | 0.0 | 0.00 | 0.00 | 0.00 | 87 | 1008.0 |
| 20260503021156 | 45 | 135 | 0.0 | 0.0 | 0.00 | 0.00 | 0.00 | 87 | 1008.0 |
| 20260503020656 | 45 | 135 | 0.0 | 0.0 | 0.00 | 0.00 | 0.00 | 86 | 1008.0 |
| 20260503020157 | 45 | 135 | 2.6 | 2.6 | 0.00 | 0.00 | 0.00 | 86 | 1008.0 |
| 20260503015654 | 45 | 135 | 0.0 | 0.0 | 0.00 | 0.00 | 0.00 | 86 | 1008.0 |
| 20260503015154 | 45 | 135 | 0.0 | 0.0 | 0.00 | 0.00 | 0.00 | 86 | 1008.0 |
| 20260503014654 | 45 | 135 | 0.0 | 0.0 | 0.00 | 0.00 | 0.00 | 85 | 1007.0 |
| 20260503014154 | 46 | 135 | 0.0 | 0.0 | 0.00 | 0.00 | 0.00 | 85 | 1008.0 |
| 20260503013654 | 46 | 135 | 0.0 | 0.0 | 0.00 | 0.00 | 0.00 | 85 | 1007.0 |
| 20260503013154 | 46 | 135 | 0.0 | 0.0 | 0.00 | 0.00 | 0.00 | 84 | 1007.0 |
| 20260503012656 | 46 | 135 | 0.0 | 0.0 | 0.00 | 0.00 | 0.00 | 83 | 1007.0 |
| 20260503012155 | 47 | 135 | 0.0 | 0.0 | 0.00 | 0.00 | 0.00 | 82 | 1007.0 |
| 20260503011656 | 47 | 135 | 0.0 | 0.0 | 0.00 | 0.00 | 0.00 | 81 | 1007.0 |
| 20260503011154 | 47 | 135 | 0.0 | 0.0 | 0.00 | 0.00 | 0.00 | 81 | 1007.0 |
| 20260503010654 | 48 | 135 | 0.0 | 0.0 | 0.00 | 0.00 | 0.00 | 80 | 1007.0 |
| 20260503010155 | 48 | 135 | 0.0 | 0.0 | 0.00 | 0.00 | 0.00 | 80 | 1007.0 |
| 20260503005655 | 48 | 135 | 0.0 | 0.0 | 0.00 | 0.00 | 0.00 | 79 | 1007.0 |
| 20260503005154 | 48 | 135 | 0.0 | 0.0 | 0.00 | 0.00 | 0.00 | 78 | 1007.0 |
| 20260503004654 | 49 | 135 | 0.0 | 0.0 | 0.00 | 0.00 | 0.00 | 77 | 1007.0 |
| 20260503004155 | 49 | 135 | 0.0 | 0.0 | 0.00 | 0.00 | 0.00 | 78 | 1006.0 |
| 20260503003654 | 49 | 135 | 0.9 | 1.7 | 0.00 | 0.00 | 0.00 | 77 | 1006.0 |
| 20260503003154 | 50 | 135 | 0.0 | 0.0 | 0.00 | 0.00 | 0.00 | 77 | 1006.0 |
| 20260503002654 | 50 | 135 | 0.0 | 0.0 | 0.00 | 0.00 | 0.00 | 76 | 1006.0 |
| 20260503002155 | 50 | 135 | 0.0 | 0.0 | 0.00 | 0.00 | 0.00 | 75 | 1007.0 |
| 20260503001654 | 50 | 135 | 0.0 | 0.0 | 0.00 | 0.00 | 0.00 | 75 | 1006.0 |
| 20260503001156 | 51 | 135 | 0.0 | 0.0 | 0.00 | 0.00 | 0.00 | 74 | 1006.0 |
| 20260503000654 | 51 | 135 | 0.0 | 0.0 | 0.00 | 0.00 | 0.00 | 73 | 1006.0 |
| 20260503000154 | 51 | 135 | 0.0 | 0.0 | 0.00 | 0.00 | 0.00 | 73 | 1006.0 |
| 20260502235654 | 52 | 135 | 0.0 | 0.0 | 0.00 | 0.00 | 0.00 | 69 | 1006.0 |
| 20260502235154 | 52 | 135 | 0.0 | 0.0 | 0.00 | 0.00 | 0.00 | 69 | 1006.0 |
| 20260502234654 | 53 | 135 | 0.0 | 0.0 | 0.00 | 0.00 | 0.00 | 67 | 1006.0 |
| 20260502234154 | 53 | 135 | 0.0 | 0.0 | 0.00 | 0.00 | 0.00 | 62 | 1006.0 |
| 20260502233654 | 54 | 135 | 0.0 | 0.0 | 0.00 | 0.00 | 0.00 | 63 | 1006.0 |
| 20260502233156 | 54 | 135 | 0.0 | 0.9 | 0.00 | 0.00 | 0.00 | 59 | 1006.0 |
| 20260502232655 | 55 | 135 | 0.0 | 0.0 | 0.00 | 0.00 | 0.00 | 59 | 1006.0 |
| 20260502232154 | 55 | 135 | 0.0 | 0.0 | 0.00 | 0.00 | 0.00 | 54 | 1005.0 |
| 20260502231654 | 55 | 135 | 0.0 | 0.0 | 0.00 | 0.00 | 0.00 | 54 | 1006.0 |
| 20260502231154 | 56 | 135 | 0.0 | 0.0 | 0.00 | 0.00 | 0.00 | 52 | 1006.0 |
| 20260502230654 | 56 | 135 | 0.0 | 0.0 | 0.00 | 0.00 | 0.00 | 53 | 1006.0 |
| 20260502230155 | 56 | 135 | 0.0 | 0.0 | 0.00 | 0.00 | 0.00 | 49 | 1005.0 |
| 20260502225654 | 56 | 135 | 0.0 | 0.9 | 0.00 | 0.00 | 0.00 | 46 | 1005.0 |
| 20260502225154 | 57 | 135 | 0.0 | 0.0 | 0.00 | 0.00 | 0.00 | 47 | 1005.0 |
| 20260502224654 | 57 | 135 | 0.0 | 0.0 | 0.00 | 0.00 | 0.00 | 47 | 1006.0 |
| 20260502224154 | 57 | 113 | 0.0 | 0.0 | 0.00 | 0.00 | 0.00 | 43 | 1005.0 |
| 20260502223654 | 57 | 113 | 1.7 | 1.7 | 0.00 | 0.00 | 0.00 | 45 | 1005.0 |
| 20260502223156 | 57 | 135 | 0.9 | 0.9 | 0.00 | 0.00 | 0.00 | 46 | 1005.0 |
| 20260502222655 | 57 | 135 | 0.9 | 1.7 | 0.00 | 0.00 | 0.00 | 46 | 1005.0 |
| 20260502222154 | 57 | 135 | 0.9 | 1.7 | 0.00 | 0.00 | 0.00 | 46 | 1005.0 |
| 20260502221654 | 57 | 135 | 2.6 | 3.5 | 0.00 | 0.00 | 0.00 | 47 | 1005.0 |
| 20260502221155 | 57 | 113 | 2.6 | 4.3 | 0.00 | 0.00 | 0.00 | 46 | 1005.0 |
| 20260502220655 | 57 | 135 | 0.9 | 0.9 | 0.00 | 0.00 | 0.00 | 49 | 1005.0 |
| 20260502220154 | 57 | 135 | 0.0 | 0.9 | 0.00 | 0.00 | 0.00 | 48 | 1005.0 |
| 20260502215655 | 57 | 113 | 0.9 | 1.7 | 0.00 | 0.00 | 0.00 | 46 | 1005.0 |
| 20260502215154 | 57 | 135 | 0.0 | 0.9 | 0.00 | 0.00 | 0.00 | 49 | 1005.0 |
| 20260502214655 | 56 | 113 | 0.9 | 1.7 | 0.00 | 0.00 | 0.00 | 46 | 1005.0 |
| 20260502214154 | 57 | 113 | 2.6 | 3.5 | 0.00 | 0.00 | 0.00 | 44 | 1005.0 |
| 20260502213654 | 57 | 113 | 0.9 | 1.7 | 0.00 | 0.00 | 0.00 | 45 | 1005.0 |
| 20260502213154 | 57 | 135 | 0.9 | 1.7 | 0.00 | 0.00 | 0.00 | 46 | 1005.0 |
| 20260502212654 | 58 | 135 | 0.9 | 1.7 | 0.00 | 0.00 | 0.00 | 44 | 1005.0 |
| 20260502212155 | 57 | 135 | 0.0 | 0.9 | 0.00 | 0.00 | 0.00 | 44 | 1005.0 |
| 20260502211654 | 57 | 113 | 5.2 | 6.1 | 0.00 | 0.00 | 0.00 | 43 | 1005.0 |
| 20260502211154 | 57 | 113 | 1.7 | 2.6 | 0.00 | 0.00 | 0.00 | 43 | 1005.0 |
| 20260502210654 | 57 | 135 | 0.0 | 0.0 | 0.00 | 0.00 | 0.00 | 45 | 1005.0 |
| 20260502210154 | 56 | 135 | 0.9 | 1.7 | 0.00 | 0.00 | 0.00 | 44 | 1005.0 |
| 20260502205654 | 56 | 135 | 0.9 | 1.7 | 0.00 | 0.00 | 0.00 | 45 | 1005.0 |
| 20260502205154 | 56 | 113 | 1.7 | 2.6 | 0.00 | 0.00 | 0.00 | 43 | 1005.0 |
| 20260502204654 | 56 | 135 | 2.6 | 2.6 | 0.00 | 0.00 | 0.00 | 45 | 1005.0 |
| 20260502204154 | 56 | 135 | 4.3 | 6.1 | 0.00 | 0.00 | 0.00 | 45 | 1005.0 |
| 20260502203654 | 57 | 113 | 1.7 | 1.7 | 0.00 | 0.00 | 0.00 | 45 | 1005.0 |
| 20260502203154 | 57 | 113 | 0.0 | 0.9 | 0.00 | 0.00 | 0.00 | 48 | 1005.0 |
| 20260502202654 | 57 | 113 | 0.9 | 1.7 | 0.00 | 0.00 | 0.00 | 46 | 1005.0 |
| 20260502202154 | 57 | 135 | 0.0 | 0.0 | 0.00 | 0.00 | 0.00 | 46 | 1005.0 |
| 20260502201654 | 57 | 135 | 1.7 | 1.7 | 0.00 | 0.00 | 0.00 | 45 | 1005.0 |
| 20260502201156 | 56 | 113 | 0.0 | 0.9 | 0.00 | 0.00 | 0.00 | 47 | 1006.0 |
| 20260502200654 | 56 | 135 | 0.0 | 0.0 | 0.00 | 0.00 | 0.00 | 47 | 1006.0 |
| 20260502200154 | 56 | 113 | 0.0 | 0.9 | 0.00 | 0.00 | 0.00 | 48 | 1006.0 |
| 20260502195654 | 56 | 113 | 2.6 | 3.5 | 0.00 | 0.00 | 0.00 | 46 | 1006.0 |
| 20260502195154 | 56 | 135 | 0.0 | 0.0 | 0.00 | 0.00 | 0.00 | 49 | 1006.0 |
| 20260502194654 | 55 | 113 | 2.6 | 3.5 | 0.00 | 0.00 | 0.00 | 47 | 1006.0 |
| 20260502194155 | 56 | 113 | 0.9 | 1.7 | 0.00 | 0.00 | 0.00 | 48 | 1006.0 |
| 20260502193655 | 55 | 113 | 0.9 | 4.3 | 0.00 | 0.00 | 0.00 | 48 | 1006.0 |
| 20260502193154 | 55 | 113 | 1.7 | 2.6 | 0.00 | 0.00 | 0.00 | 47 | 1006.0 |
| 20260502192655 | 55 | 113 | 0.0 | 0.9 | 0.00 | 0.00 | 0.00 | 46 | 1006.0 |
| 20260502192155 | 55 | 113 | 1.7 | 2.6 | 0.00 | 0.00 | 0.00 | 48 | 1006.0 |
| 20260502191654 | 54 | 113 | 1.7 | 1.7 | 0.00 | 0.00 | 0.00 | 48 | 1006.0 |
| 20260502191154 | 54 | 113 | 1.7 | 1.7 | 0.00 | 0.00 | 0.00 | 47 | 1006.0 |
| 20260502190654 | 54 | 113 | 1.7 | 3.5 | 0.00 | 0.00 | 0.00 | 47 | 1006.0 |
| 20260502190154 | 54 | 113 | 0.9 | 1.7 | 0.00 | 0.00 | 0.00 | 47 | 1006.0 |
| 20260502185654 | 54 | 113 | 1.7 | 1.7 | 0.00 | 0.00 | 0.00 | 47 | 1006.0 |
| 20260502185154 | 54 | 113 | 1.7 | 1.7 | 0.00 | 0.00 | 0.00 | 47 | 1006.0 |
| 20260502184654 | 55 | 113 | 0.9 | 1.7 | 0.00 | 0.00 | 0.00 | 47 | 1006.0 |
| 20260502184155 | 55 | 113 | 0.9 | 1.7 | 0.00 | 0.00 | 0.00 | 47 | 1006.0 |
| 20260502183654 | 55 | 113 | 2.6 | 2.6 | 0.00 | 0.00 | 0.00 | 46 | 1006.0 |
| 20260502183155 | 55 | 113 | 0.0 | 1.7 | 0.00 | 0.00 | 0.00 | 46 | 1006.0 |
| 20260502182654 | 55 | 113 | 1.7 | 1.7 | 0.00 | 0.00 | 0.00 | 47 | 1006.0 |
| 20260502182157 | 55 | 113 | 0.0 | 0.9 | 0.00 | 0.00 | 0.00 | 47 | 1006.0 |
| 20260502181654 | 55 | 113 | 4.3 | 5.2 | 0.00 | 0.00 | 0.00 | 44 | 1006.0 |
| 20260502181155 | 55 | 113 | 2.6 | 2.6 | 0.00 | 0.00 | 0.00 | 45 | 1006.0 |
| 20260502180654 | 56 | 113 | 1.7 | 2.6 | 0.00 | 0.00 | 0.00 | 46 | 1006.0 |
| 20260502180157 | 56 | 113 | 0.9 | 1.7 | 0.00 | 0.00 | 0.00 | 47 | 1006.0 |
| 20260502170154 | 54 | 113 | 0.0 | 0.9 | 0.00 | 0.00 | 0.00 | 48 | 1007.0 |
| 20260502164154 | 54 | 113 | 2.6 | 3.5 | 0.00 | 0.00 | 0.00 | 47 | 1007.0 |
| 20260502163655 | 54 | 113 | 1.7 | 2.6 | 0.00 | 0.00 | 0.00 | 47 | 1007.0 |
| 20260502163155 | 54 | 113 | 2.6 | 3.5 | 0.00 | 0.00 | 0.00 | 47 | 1007.0 |
| 20260502162654 | 54 | 113 | 1.7 | 2.6 | 0.00 | 0.00 | 0.00 | 46 | 1007.0 |
| 20260502162156 | 54 | 113 | 1.7 | 2.6 | 0.00 | 0.00 | 0.00 | 46 | 1007.0 |
| 20260502161654 | 53 | 113 | 1.7 | 2.6 | 0.00 | 0.00 | 0.00 | 47 | 1007.0 |
| 20260502161154 | 53 | 113 | 4.3 | 6.1 | 0.00 | 0.00 | 0.00 | 45 | 1007.0 |
| 20260502160656 | 53 | 113 | 3.5 | 4.3 | 0.00 | 0.00 | 0.00 | 45 | 1008.0 |
| 20260502160154 | 53 | 113 | 0.9 | 1.7 | 0.00 | 0.00 | 0.00 | 47 | 1008.0 |
| 20260502152154 | 53 | 113 | 4.3 | 6.1 | 0.00 | 0.00 | 0.00 | 46 | 1008.0 |
| 20260502151654 | 54 | 113 | 1.7 | 1.7 | 0.00 | 0.00 | 0.00 | 49 | 1007.0 |
| 20260502151154 | 54 | 113 | 0.9 | 1.7 | 0.00 | 0.00 | 0.00 | 50 | 1008.0 |
| 20260502150654 | 54 | 113 | 1.7 | 1.7 | 0.00 | 0.00 | 0.00 | 56 | 1007.0 |
| 20260502150154 | 54 | 113 | 2.6 | 2.6 | 0.00 | 0.00 | 0.00 | 53 | 1007.0 |
| 20260502130655 | 53 | 113 | 0.0 | 0.9 | 0.00 | 0.00 | 0.00 | 66 | 1007.0 |
| 20260502130154 | 53 | 113 | 1.7 | 1.7 | 0.00 | 0.00 | 0.00 | 66 | 1007.0 |
| 20260502123654 | 53 | 113 | 0.0 | 0.0 | 0.00 | 0.00 | 0.00 | 69 | 1007.0 |
| 20260502123155 | 52 | 113 | 0.0 | 1.7 | 0.00 | 0.00 | 0.00 | 68 | 1007.0 |
| 20260502122655 | 52 | 113 | 0.9 | 1.7 | 0.00 | 0.00 | 0.00 | 69 | 1007.0 |
| 20260502122154 | 52 | 113 | 0.0 | 0.0 | 0.00 | 0.00 | 0.00 | 70 | 1007.0 |
| 20260502121654 | 52 | 135 | 0.0 | 0.0 | 0.00 | 0.00 | 0.00 | 71 | 1007.0 |
| 20260502121154 | 52 | 113 | 0.9 | 1.7 | 0.00 | 0.00 | 0.00 | 70 | 1007.0 |
| 20260502120654 | 52 | 113 | 0.9 | 1.7 | 0.00 | 0.00 | 0.00 | 71 | 1007.0 |
| 20260502120154 | 52 | 113 | 0.9 | 1.7 | 0.00 | 0.00 | 0.00 | 71 | 1007.0 |
| 20260502115654 | 52 | 113 | 1.7 | 1.7 | 0.00 | 0.00 | 0.00 | 71 | 1007.0 |
| 20260502115154 | 52 | 135 | 0.0 | 0.0 | 0.00 | 0.00 | 0.00 | 74 | 1007.0 |
| 20260502114654 | 52 | 113 | 2.6 | 4.3 | 0.00 | 0.00 | 0.00 | 72 | 1007.0 |
| 20260502114154 | 52 | 113 | 0.9 | 1.7 | 0.00 | 0.00 | 0.00 | 74 | 1006.0 |
| 20260502113654 | 52 | 113 | 0.9 | 1.7 | 0.00 | 0.00 | 0.00 | 75 | 1007.0 |
| 20260502113154 | 52 | 113 | 0.9 | 1.7 | 0.00 | 0.00 | 0.00 | 76 | 1006.0 |
| 20260502112654 | 52 | 113 | 1.7 | 2.6 | 0.00 | 0.00 | 0.00 | 76 | 1006.0 |
| 20260502112155 | 52 | 113 | 0.0 | 0.9 | 0.00 | 0.00 | 0.00 | 80 | 1006.0 |
| 20260502111656 | 52 | 113 | 0.9 | 1.7 | 0.00 | 0.00 | 0.00 | 81 | 1006.0 |
| 20260502111155 | 52 | 113 | 0.9 | 1.7 | 0.00 | 0.00 | 0.00 | 82 | 1006.0 |
| 20260502110655 | 52 | 113 | 0.0 | 0.9 | 0.00 | 0.00 | 0.00 | 82 | 1006.0 |
| 20260502110155 | 51 | 113 | 0.0 | 0.9 | 0.00 | 0.00 | 0.00 | 83 | 1006.0 |
| 20260502105655 | 51 | 135 | 0.0 | 0.9 | 0.00 | 0.00 | 0.00 | 84 | 1006.0 |
| 20260502105154 | 51 | 135 | 0.0 | 0.0 | 0.00 | 0.00 | 0.00 | 85 | 1006.0 |
| 20260502104655 | 51 | 135 | 0.0 | 0.0 | 0.00 | 0.00 | 0.00 | 87 | 1006.0 |
| 20260502104154 | 51 | 135 | 0.0 | 0.9 | 0.00 | 0.00 | 0.00 | 87 | 1006.0 |
| 20260502103655 | 51 | 135 | 0.0 | 0.0 | 0.00 | 0.00 | 0.00 | 87 | 1006.0 |
| 20260502103154 | 51 | 135 | 0.0 | 0.0 | 0.00 | 0.00 | 0.00 | 88 | 1006.0 |
| 20260502102654 | 51 | 135 | 0.0 | 0.0 | 0.00 | 0.00 | 0.00 | 88 | 1006.0 |
| 20260502102154 | 51 | 135 | 0.9 | 1.7 | 0.00 | 0.00 | 0.00 | 90 | 1007.0 |
| 20260502101656 | 51 | 135 | 0.0 | 0.0 | 0.00 | 0.00 | 0.00 | 90 | 1007.0 |
| 20260502101155 | 51 | 135 | 0.0 | 0.0 | 0.00 | 0.00 | 0.00 | 90 | 1007.0 |
| 20260502100654 | 51 | 135 | 0.0 | 0.0 | 0.00 | 0.00 | 0.00 | 90 | 1007.0 |
| 20260502100154 | 51 | 135 | 0.0 | 0.0 | 0.00 | 0.00 | 0.00 | 90 | 1007.0 |
| 20260502091154 | 50 | 135 | 0.0 | 0.0 | 0.00 | 0.00 | 0.00 | 90 | 1007.0 |
| 20260502090654 | 50 | 135 | 0.0 | 0.0 | 0.00 | 0.00 | 0.00 | 90 | 1006.0 |
| 20260502090155 | 50 | 135 | 0.0 | 0.0 | 0.00 | 0.00 | 0.00 | 90 | 1007.0 |
| 20260502071155 | 50 | 135 | 0.0 | 0.0 | 0.00 | 0.00 | 0.00 | 89 | 1006.0 |
| 20260502070654 | 50 | 135 | 0.0 | 0.0 | 0.00 | 0.00 | 0.00 | 89 | 1006.0 |
| 20260502070154 | 50 | 135 | 0.0 | 0.0 | 0.00 | 0.00 | 0.00 | 89 | 1006.0 |
| 20260502065654 | 50 | 135 | 0.0 | 0.0 | 0.00 | 0.00 | 0.00 | 89 | 1006.0 |
| 20260502065154 | 50 | 135 | 0.0 | 0.0 | 0.00 | 0.00 | 0.00 | 89 | 1006.0 |
| 20260502064655 | 50 | 135 | 0.0 | 0.0 | 0.00 | 0.00 | 0.00 | 89 | 1006.0 |
| 20260502064154 | 50 | 135 | 0.0 | 0.0 | 0.00 | 0.00 | 0.00 | 89 | 1006.0 |
| 20260502063654 | 50 | 135 | 0.0 | 0.0 | 0.00 | 0.00 | 0.00 | 89 | 1006.0 |
| 20260502063154 | 50 | 135 | 0.0 | 0.0 | 0.00 | 0.00 | 0.00 | 89 | 1006.0 |
| 20260502062654 | 50 | 135 | 0.0 | 0.0 | 0.00 | 0.00 | 0.00 | 89 | 1006.0 |
| 20260502062154 | 50 | 113 | 0.0 | 0.0 | 0.00 | 0.00 | 0.00 | 89 | 1006.0 |
| 20260502061654 | 50 | 113 | 0.0 | 0.0 | 0.00 | 0.00 | 0.00 | 89 | 1006.0 |
| 20260502061154 | 49 | 113 | 0.0 | 0.0 | 0.00 | 0.00 | 0.00 | 89 | 1006.0 |
| 20260502060654 | 49 | 135 | 0.0 | 0.0 | 0.00 | 0.00 | 0.00 | 89 | 1006.0 |
| 20260502060154 | 49 | 113 | 2.6 | 2.6 | 0.00 | 0.00 | 0.00 | 89 | 1006.0 |
| 20260502055655 | 49 | 135 | 0.0 | 0.0 | 0.00 | 0.00 | 0.00 | 88 | 1006.0 |
| 20260502055155 | 49 | 135 | 0.0 | 0.0 | 0.00 | 0.00 | 0.00 | 88 | 1006.0 |
| 20260502054654 | 50 | 135 | 0.0 | 0.0 | 0.00 | 0.00 | 0.00 | 89 | 1006.0 |
| 20260502054154 | 50 | 135 | 0.0 | 0.0 | 0.00 | 0.00 | 0.00 | 89 | 1006.0 |
| 20260502053654 | 50 | 135 | 0.0 | 0.0 | 0.00 | 0.00 | 0.00 | 88 | 1006.0 |
| 20260502053154 | 50 | 135 | 0.0 | 0.0 | 0.00 | 0.00 | 0.00 | 88 | 1006.0 |
| 20260502052654 | 50 | 135 | 0.0 | 0.0 | 0.00 | 0.00 | 0.00 | 88 | 1006.0 |
| 20260502052154 | 50 | 135 | 0.0 | 0.0 | 0.00 | 0.00 | 0.00 | 88 | 1006.0 |
| 20260502051653 | 50 | 135 | 0.0 | 0.0 | 0.00 | 0.00 | 0.00 | 88 | 1006.0 |
| 20260502051154 | 50 | 135 | 0.0 | 0.0 | 0.00 | 0.00 | 0.00 | 88 | 1006.0 |
| 20260502050655 | 50 | 135 | 0.0 | 0.0 | 0.00 | 0.00 | 0.00 | 88 | 1006.0 |
| 20260502050155 | 50 | 135 | 0.0 | 0.0 | 0.00 | 0.00 | 0.00 | 88 | 1006.0 |
| 20260502045654 | 50 | 135 | 0.0 | 0.0 | 0.00 | 0.00 | 0.00 | 87 | 1006.0 |
| 20260502045154 | 50 | 135 | 0.0 | 0.0 | 0.00 | 0.00 | 0.00 | 87 | 1006.0 |
| 20260502044655 | 50 | 135 | 0.0 | 0.0 | 0.00 | 0.00 | 0.00 | 87 | 1006.0 |
| 20260502044155 | 50 | 135 | 0.0 | 0.0 | 0.00 | 0.00 | 0.00 | 87 | 1006.0 |
| 20260502043654 | 50 | 135 | 0.0 | 0.0 | 0.00 | 0.00 | 0.00 | 87 | 1006.0 |
| 20260502043154 | 50 | 135 | 0.0 | 0.0 | 0.00 | 0.00 | 0.00 | 86 | 1006.0 |
| 20260502042655 | 51 | 135 | 0.0 | 0.0 | 0.00 | 0.00 | 0.00 | 86 | 1006.0 |
| 20260502042155 | 51 | 135 | 0.0 | 0.0 | 0.00 | 0.00 | 0.00 | 86 | 1006.0 |
| 20260502041655 | 51 | 135 | 0.0 | 0.0 | 0.00 | 0.00 | 0.00 | 86 | 1006.0 |
| 20260502041154 | 51 | 135 | 0.0 | 0.0 | 0.00 | 0.00 | 0.00 | 86 | 1006.0 |
| 20260502040654 | 51 | 135 | 0.0 | 0.9 | 0.00 | 0.00 | 0.00 | 86 | 1006.0 |
| 20260502040156 | 51 | 135 | 0.0 | 0.0 | 0.00 | 0.00 | 0.00 | 85 | 1006.0 |
| 20260502035654 | 51 | 135 | 0.0 | 0.0 | 0.00 | 0.00 | 0.00 | 85 | 1006.0 |
| 20260502035154 | 51 | 135 | 0.0 | 0.0 | 0.00 | 0.00 | 0.00 | 85 | 1006.0 |
| 20260502034654 | 51 | 135 | 0.0 | 0.0 | 0.00 | 0.00 | 0.00 | 84 | 1007.0 |
| 20260502034154 | 51 | 135 | 0.0 | 0.0 | 0.00 | 0.00 | 0.00 | 84 | 1006.0 |
| 20260502033654 | 51 | 135 | 0.0 | 0.0 | 0.00 | 0.00 | 0.00 | 84 | 1006.0 |